Starlink 5906

operational
NORAD ID: 55962 Int'l Des: 2023-037 Owner: SPXS Country: US Constellation: starlink
LEOCIRCULAR

About Starlink 5906

Description loading...

Live Position

Loading 3D Globe...

Upcoming Passes

Altitude History

Altitude vs Time

uPlot chart will show altitude changes over time

Two-Line Element Set

1 55962U 23037BA 25351.33390524 -.00000065 00000-0 23883-5 0 9998
2 55962 70.0002 112.2380 0003312 268.6431 91.4349 14.98338311152137
Epoch: Dec 17, 2025 • Age: 7 hours

Current Status

Altitude 577.1 km
Velocity 7.57 km/s
Sub-Earth Point 33.44°N, 34.79°W
Launch Date Mar 17, 2023
Age 2.7 years
Type internet

Technical Details

Classification Payload
Mass 305.00 kg
Dry Mass 290.00 kg
Total Mass 305.00 kg
Length 0.20 m
Diameter 2.80 m
Span 9.00 m
Shape Box + pan
Manufacturer SPXS
Bus Type Starlink
Phase Status In Orbit
Owner/State SPXS/US

Large Constellations

Loading constellations...